Home   Weather   Nagoya   Past weeks

Flag for Japan Past Weather in Nagoya, Japan — Yesterday and Last 2 Weeks

Now
61 °F

Passing clouds.


Feels Like: 61 °F
Forecast: 53 / 64 °F
Wind: 8 mph from Southeast

Location: Nagoya Airport

Current Time: Apr 25, 2017 at 9:53:31 pm

Latest Report: Apr 25, 2017 at 9:00 pm


Visibility: N/A

Pressure: 30.21 "Hg

Humidity: 63%

Dew Point: 48 °F

Location of NagoyaLocation

Past Weather in Nagoya — Graph

°F

Nagoya Temperature Yesterday

Maximum temperature yesterday: 68 °F (at 1:30 pm)
Minimum temperature yesterday: 55 °F (at 1:30 am)
Average temperature yesterday: 61 °F

High & Low Weather Summary for the Past Weeks

 TemperatureHumidityPressure
High70 °F (Apr 25, 12:00 pm)94% (Apr 11, 12:30 pm)30.33 "Hg (Apr 11, 12:30 pm)
Low45 °F (Apr 14, 4:30 am)25% (Apr 13, 11:30 am)29.27 "Hg (Apr 18, 3:30 am)
Average58 °F66%29.87 "Hg
* Reported Apr 10 8:00 pm — Apr 25 8:30 pm, Nagoya, Weather by CustomWeather, © 2017

Note: Actual official high and low records may vary slightly from our data, if they occured in-between our weather recording intervals... More about our weather records

Advertising

Nagoya Weather History for the Previous 24 Hours

Scroll right to see more
 ConditionsComfort  
Time TempWeatherWind HumidityBarometerVisibility
8:30 pm
Tue, Apr 25
61 °FPassing clouds.8 mph63%30.24 "HgN/A
8:00 pm61 °FPassing clouds.10 mph63%30.21 "HgN/A
7:00 pm61 °FPassing clouds.13 mph63%30.21 "HgN/A
6:30 pm63 °FPartly sunny.13 mph56%30.21 "HgN/A
6:00 pm63 °FBroken clouds.15 mph56%30.21 "HgN/A
5:30 pm63 °FBroken clouds.14 mph56%30.24 "HgN/A
5:00 pm64 °FBroken clouds.17 mph52%30.21 "HgN/A
4:30 pm64 °FBroken clouds.16 mph52%30.24 "HgN/A
4:00 pm66 °FPartly sunny.15 mph49%30.24 "HgN/A
3:30 pm66 °FPartly sunny.18 mph49%30.21 "HgN/A
3:00 pm66 °FPartly sunny.20 mph52%30.21 "HgN/A
2:30 pm68 °FScattered clouds.16 mph49%30.24 "HgN/A
2:00 pm68 °FPartly sunny.16 mph49%30.27 "HgN/A
1:30 pm68 °FPartly sunny.17 mph49%30.27 "HgN/A
1:00 pm68 °FPartly sunny.17 mph46%30.27 "HgN/A
12:30 pm66 °FScattered clouds.16 mph56%30.27 "HgN/A
12:00 pm70 °FPassing clouds.16 mph46%30.27 "HgN/A
11:00 am68 °FPassing clouds.15 mph46%30.30 "HgN/A
10:30 am66 °FScattered clouds.14 mph52%30.30 "HgN/A
10:00 am64 °FPartly sunny.16 mph52%30.30 "HgN/A
9:00 am64 °FPartly sunny.14 mph52%30.30 "HgN/A
8:30 am64 °FPartly sunny.15 mph56%30.30 "HgN/A
8:00 am63 °FPartly sunny.14 mph59%30.33 "HgN/A
7:30 am61 °FPartly sunny.10 mph59%30.33 "HgN/A
7:00 am61 °FPartly sunny.8 mph68%30.30 "HgN/A
6:30 am57 °FScattered showers. Broken clouds.9 mph77%30.30 "HgN/A
6:00 am57 °FScattered showers. Partly sunny.10 mph77%30.30 "HgN/A
5:00 am57 °FSprinkles. Passing clouds.7 mph77%30.27 "HgN/A
4:30 am57 °FSprinkles. Partly cloudy.6 mph77%30.27 "HgN/A
4:00 am57 °FPartly cloudy.10 mph72%30.27 "HgN/A
3:30 am57 °FPartly cloudy.12 mph72%30.27 "HgN/A
3:00 am57 °FPassing clouds.10 mph72%30.27 "HgN/A
2:30 am57 °FPassing clouds.9 mph72%30.27 "HgN/A
2:00 am57 °FPassing clouds.10 mph77%30.27 "HgN/A
1:30 am57 °FPassing clouds.10 mph77%30.27 "HgN/A
1:00 am57 °FPassing clouds.10 mph72%30.30 "HgN/A
12:30 am57 °FPassing clouds.12 mph77%30.30 "HgN/A
12:00 am59 °FPassing clouds.10 mph77%30.30 "HgN/A
11:30 pm
Mon, Apr 24
59 °FPassing clouds.10 mph77%30.30 "HgN/A
11:00 pm59 °FPassing clouds.10 mph77%30.30 "HgN/A
10:30 pm59 °FPassing clouds.9 mph72%30.30 "HgN/A
10:00 pm59 °FPassing clouds.12 mph72%30.30 "HgN/A
9:30 pm59 °FPassing clouds.12 mph72%30.30 "HgN/A
9:00 pm59 °FPassing clouds.12 mph72%30.30 "HgN/A
Weather by CustomWeather, © 2017

See weather overviewHow to use our weather pages